Location: Slidell
(30.2789°N, 89.7378°W)
Time: 19:23:09
(UTC-05:00)

Daily predictions for brighter satellites

Satellite Brightness Start Highest point End
(mag) Time Altitude Azimuth Time Altitude Azimuth Time Altitude Azimuth
Cosmos 1743 Rocket 4.3 20:27:37 10° SSE 20:31:40 34° E 20:35:42 10° NNE
Cosmos 2228 Rocket 4.1 20:30:19 10° NNE 20:34:12 28° E 20:38:06 10° SE
Cosmos 968 Rocket 3.5 20:30:41 10° S 20:35:45 62° ESE 20:40:54 10° NNE
Cosmos 405 Rocket 3.5 20:32:42 10° SSW 20:36:19 54° W 20:39:58 10° N
Cosmos 1980 Rocket 2.3 20:30:52 10° NNW 20:36:35 88° ENE 20:42:16 10° SSE
SL-16 R/B 3.3 20:31:57 10° N 20:36:50 29° ENE 20:41:41 10° ESE
Resurs 01 Rocket 3.6 20:34:59 10° SSW 20:38:51 29° W 20:42:44 10° NW
Cosmos 2221 2.6 20:36:03 10° N 20:40:21 82° W 20:44:38 10° S
FENGYUN 3A 3.7 20:36:03 10° SSE 20:41:26 72° ENE 20:46:50 10° N
ATLAS CENTAUR R/B 2.0 20:38:09 10° NNW 20:42:23 42° ENE 20:46:06 11° SE
Cosmos 1697 Rocket 3.8 20:37:31 10° NW 20:42:52 45° WSW 20:48:10 10° S
Meteor 1-24 Rocket 4.3 20:38:35 10° SSW 20:44:12 63° W 20:49:40 10° N
CZ-4 DEB 2.9 20:44:33 10° SSE 20:47:41 55° ENE 20:50:50 10° N
Cosmos 371 Rocket 4.0 20:43:42 10° N 20:48:09 36° ENE 20:52:12 12° SE
ALOS 2.3 20:44:18 10° SSE 20:48:58 87° W 20:53:39 10° NNW
USA 186 0.9 20:47:37 10° S 20:49:57 84° WSW 20:52:21 10° NNW
Cosmos 1939 Rocket 4.3 20:47:30 11° ESE 20:50:16 22° ENE 20:53:18 10° NNE
deb Chang Zheng 4 3.9 20:46:58 10° NNE 20:51:05 43° E 20:55:12 10° S
Cosmos 1766 Rocket 4.2 20:46:56 10° SSW 20:51:18 60° W 20:55:40 10° N
Delta 2 Rocket 3.2 20:49:21 10° WSW 20:53:03 68° NNW 20:56:28 10° ENE
Cosmos 1674 4.0 20:53:25 13° SE 20:55:49 22° E 20:58:50 10° NE
Envisat 4.1 20:53:30 13° ESE 20:57:10 27° ENE 21:01:25 10° NNE
SPOT 5 4.4 20:55:18 12° ESE 20:57:53 19° ENE 21:01:06 10° NNE
GPS 2-04 Rocket1 3.0 20:54:56 10° WNW 20:59:19 77° NNE 21:02:52 15° ESE
Delta 142 4.3 20:56:26 10° W 21:00:47 46° SSW 21:04:58 16° SE
Cosmos 1833 4.3 20:56:30 10° S 21:02:02 53° ESE 21:07:34 10° NNE
ERS-1 Rocket 3.1 20:59:07 11° SSE 21:03:52 57° ENE 21:08:47 10° N
Cosmos 1428 Rocket 4.5 20:57:46 10° S 21:04:00 81° E 21:10:19 10° N
Tiangong 1 1.7 21:01:56 10° SSW 21:04:44 32° SE 21:07:00 14° E
H-2A R/B 3.6 21:04:43 10° S 21:08:28 49° W 21:12:11 10° NNW
Cosmos 1437 4.3 21:08:49 19° E 21:09:04 19° E 21:11:26 10° NE
Cosmos 1437 Rocket 3.7 21:08:07 10° NNE 21:11:29 29° E 21:13:01 22° ESE
Cosmos 1515 Rocket 4.0 21:07:28 10° N 21:11:43 44° E 21:14:29 20° SE
Cosmos 1777 Rocket 4.0 21:07:46 10° SSW 21:13:02 85° ESE 21:18:19 10° NNE
SJ-11-01 4.2 21:13:47 14° SSE 21:17:49 79° ENE 21:22:33 10° N
Nimbus 7 Rocket 4.3 21:12:17 10° NNE 21:18:07 69° ESE 21:23:56 10° S
H-2A R/B 0.7 21:15:23 10° WSW 21:18:40 35° S 21:18:42 35° SSE
Cosmos 2266 Rocket 4.1 21:12:29 10° SSE 21:18:40 56° E 21:24:46 10° NNE
Meteor 1-21 Rocket 4.2 21:13:32 10° S 21:19:06 85° W 21:24:39 10° N
AVUM R/B 2.7 21:17:22 10° SSW 21:19:30 62° WNW 21:21:49 10° NNE
Cosmos 2151 3.6 21:18:32 23° SE 21:20:20 34° E 21:24:08 10° NNE
NOSS 3-1 (C) 3.8 21:17:43 10° S 21:22:55 37° ESE 21:28:26 10° NE
YAOGAN 6 4.4 21:23:27 17° E 21:23:49 17° ENE 21:26:14 10° NNE
Cosmos 1553 Rocket 4.0 21:20:31 10° N 21:26:55 88° W 21:32:53 12° S
Cosmos 405 3.9 21:23:55 10° NNE 21:27:10 30° E 21:27:44 29° E
Cosmos 1328 4.5 21:28:08 30° ESE 21:29:00 34° E 21:32:36 10° NNE
CZ-2C R/B 2.4 21:34:46 22° NW 21:34:46 22° NW 21:35:37 10° NNW
Cosmos 1805 Rocket 4.5 21:33:35 28° ESE 21:34:08 29° E 21:37:59 10° NNE
Cosmos 1151 Rocket 3.3 21:33:09 10° N 21:37:21 49° E 21:38:40 36° SE
ARGOS 4.4 21:37:03 22° E 21:38:40 25° ENE 21:43:00 10° NNE
Delta 128 4.1 21:36:45 10° W 21:41:06 41° SSW 21:42:10 35° SSE
SPOT 1/Viking Rocket 4.4 21:41:06 27° ESE 21:42:35 32° ENE 21:47:06 10° N
Cosmos 2058 3.3 21:46:01 40° E 21:46:14 40° E 21:50:05 10° NNE
Cosmos 1538 Rocket 4.4 21:42:31 10° NNW 21:47:47 61° WSW 21:51:07 23° S
Cosmos 1680 Rocket 4.1 21:43:16 10° N 21:48:12 40° ENE 21:49:36 33° ESE
H-2A R/B 2.7 21:48:08 23° S 21:50:48 56° W 21:55:16 10° NNW
Cosmos 923 Rocket 4.1 21:46:48 10° N 21:51:57 60° ENE 21:53:33 41° SE
Cosmos 2219 3.1 21:46:32 10° SSW 21:52:15 77° ESE 21:58:00 10° NNE
Terra 3.9 21:55:46 13° ENE 21:55:49 13° ENE 21:58:00 10° NE
SL-14 R/B 4.4 21:56:58 29° ENE 21:56:58 29° ENE 21:59:37 10° NNE
CZ-4B R/B 3.4 21:50:58 10° NNE 21:56:14 73° ESE 21:58:43 31° S
Cosmos 1666 Rocket 4.2 21:56:36 37° E 21:56:36 37° E 22:00:22 10° NNE
Cosmos 1898 Rocket 3.9 21:56:18 38° ESE 21:56:25 38° E 22:01:11 10° NE
CZ-4 SHROUD 3.2 21:57:27 78° NNW 21:57:27 78° NNW 22:00:24 10° NNW
Cosmos 2150 Rocket 4.4 21:57:10 40° ESE 21:57:48 42° E 22:02:55 10° NNE
Nadezhda 2 Rocket 4.3 21:54:31 24° S 21:58:29 80° E 22:04:36 10° N
Cosmos 1726 4.0 22:00:55 10° NNE 22:02:46 19° NE 22:02:46 19° NE
Cosmos 2322 3.7 22:01:04 10° NNW 22:06:45 66° ENE 22:08:14 48° SE
OAO 2 Rocket 3.3 22:04:12 10° WSW 22:09:31 77° SSE 22:11:37 37° E
Cosmos 2322 Rocket 3.5 22:05:47 10° NW 22:10:44 33° WSW 22:13:59 19° SSW
Cosmos 773 Rocket 4.2 22:05:58 10° NNW 22:11:08 65° WSW 22:12:51 41° SSW
CZ-4 R/B 3.7 22:10:46 10° NNE 22:15:42 80° ESE 22:16:33 60° S
NOAA 11 4.3 22:16:38 52° ESE 22:17:28 58° ENE 22:22:48 10° N
SL-16 R/B 3.7 22:15:59 10° NW 22:20:48 29° WSW 22:23:46 19° SSW
ATLAS CENTAUR R/B 4.0 22:19:27 10° W 22:20:53 12° WSW 22:22:17 10° SW
Cosmos 2360 Rocket 2.1 22:15:31 10° NNW 22:21:12 88° WSW 22:22:22 58° SSE
NOSS 3-1 (A) 3.2 22:21:17 19° SSW 22:25:35 87° WNW 22:31:51 10° NNE
Meteor 1-11 4.2 22:25:08 43° SSW 22:27:08 82° W 22:32:55 10° N
USA 32 4.4 22:29:20 10° N 22:34:01 50° ENE 22:34:01 50° ENE
SPOT 5 4.1 22:34:33 27° SW 22:35:40 30° W 22:39:44 10° NW
SL-08 RB Rocket 3.8 22:40:45 69° NNW 22:40:45 69° NNW 22:44:42 10° NNW
Cosmos 2242 Rocket 4.5 22:35:51 10° N 22:39:06 41° NE 22:39:06 41° NE
Cosmos 2227 Rocket 3.0 22:42:28 37° ENE 22:42:28 37° ENE 22:46:19 10° NNE
Tiangong 1 4.1 22:38:40 10° W 22:39:15 14° WNW 22:39:15 14° WNW
Cosmos 1300 4.0 22:43:26 10° NNW 22:46:04 39° NW 22:46:04 39° NW
ATLAS 2AS CENTAUR R/B 3.1 22:48:09 51° ESE 22:48:09 51° ESE 22:55:19 10° NE
Cosmos 2112 Rocket 4.5 22:47:59 10° NNW 22:53:03 51° WSW 22:53:12 51° WSW
H-2A R/B 3.7 22:50:15 10° WSW 22:54:45 75° SSE 23:28:10 10° E
H-2A R/B 3.7 22:50:14 10° WSW 22:54:45 75° SSE 23:28:11 10° E
Cosmos 2333 Rocket 3.5 22:50:33 10° N 22:55:11 28° ENE 22:55:11 28° ENE
Sich 1 4.1 22:56:58 41° WNW 22:56:58 41° WNW 23:00:56 10° N
DELTA 2 R/B (1) 3.7 22:51:38 10° WNW 22:57:08 65° NNE 22:57:08 65° NNE
Cosmos 1633 Rocket 4.1 22:58:07 41° WNW 22:58:07 41° WNW 23:01:54 10° N
Cosmos 1937 Rocket 3.7 22:58:30 69° WNW 22:58:30 69° WNW 23:03:34 10° N
COSMOS 2428 2.8 23:01:32 10° NNW 23:06:47 72° WNW 23:06:47 72° WNW
Cosmos 2297 Rocket 3.2 23:10:25 36° NE 23:10:25 36° NE 23:13:51 10° NNE
H-2A R/B 2.3 23:10:13 67° NNW 23:10:13 67° NNW 23:14:55 10° NNW
ATLAS 3B R/B 4.5 23:09:39 10° N 23:14:09 18° NE 23:16:07 16° ENE
ARGOS 4.4 23:18:34 31° W 23:18:41 31° W 23:23:27 10° NW
Cosmos 2219 Rocket 2.7 23:17:59 10° NNW 23:22:26 54° NNE 23:22:26 54° NNE
Terra 3.2 23:34:39 35° NW 23:34:39 35° NW 23:37:40 10° NNW
Nadezhda 1 Rocket 4.3 23:31:53 10° NNW 23:37:15 60° WNW 23:37:15 60° WNW
Cosmos 1980 4.4 23:33:25 10° NNW 23:37:35 48° N 23:37:35 48° N
COSMOS 2455 4.3 23:41:14 10° N 23:45:49 28° NE 23:45:49 28° NE
Cosmos 1709 Rocket 4.4 23:52:27 58° NNW 23:52:27 58° NNW 23:57:26 10° N
Cosmos 2237 Rocket 3.0 23:46:29 10° NNW 23:50:31 47° N 23:50:31 47° N
SeaSat 1 4.0 23:55:21 31° NNE 23:55:21 31° NNE 23:58:10 10° N
